This demonstration page uses our WeatherBlox Daily Observations layout. Learn more.

Left ArrowRight Arrow

34.16533, -84.80231

Hourly Observations for December 9, 2017

Temp ( °F °C ) Dew Point ( °F °C ) Humidity (%) Winds ( mph kmh ) Pressure ( in mb ) Visibility ( mi km ) Precip ( " mm )
12:09 am 00:09 Mostly Clear with Mist and Fog 31 -0.6 31 -0.6 100 100 VRB 3 6 30.00 1016 4 6 0.00 0.00
12:45 am 00:45 Cloudy with Mist and Fog 31 -0.6 31 -0.6 100 100 Calm 30.03 1017 6 10 0.00 0.00
12:53 am 00:53 Cloudy with Mist and Fog 31 -0.6 31 -0.6 100 100 Calm 29.99 1016 5 8 0.00 0.00
1:20 am 01:20 Cloudy with Light Snow 31 -0.6 31 -0.6 100 100 Calm 30.03 1017 2 3 0.00 0.03
1:53 am 01:53 Cloudy with Light Snow 31 -0.6 31 -0.6 100 100 Calm 29.97 1015 1 2 0.02 0.51
2:53 am 02:53 Cloudy with Light Snow 31 -0.6 31 -0.6 100 100 Calm 29.97 1015 2 2 0.02 0.51
3:53 am 03:53 Cloudy with Light Snow 31 -0.6 31 -0.6 100 100 Calm 29.97 1015 1 2 0.04 1.02
4:16 am 04:16 Cloudy with Light Snow 31 -0.6 31 -0.6 100 100 Calm 30.00 1016 1 2 0.01 0.25
4:29 am 04:29 Cloudy with Light Snow 31 -0.6 31 -0.6 100 100 Calm 30.00 1016 1 2 0.01 0.25
4:53 am 04:53 Cloudy with Light Snow 31 -0.6 31 -0.6 100 100 Calm 29.94 1014 2 3 0.02 0.51
5:01 am 05:01 Cloudy with Light Snow 31 -0.6 31 -0.6 100 100 Calm 30.00 1016 3 4 0.00 0.03
5:06 am 05:06 Cloudy with Light Snow 31 -0.6 31 -0.6 100 100 Calm 30.00 1016 3 5 0.00 0.03
5:34 am 05:34 Cloudy with Light Snow 31 -0.6 31 -0.6 100 100 Calm 30.03 1017 2 3 0.00 0.03
5:43 am 05:43 Cloudy with Light Snow 31 -0.6 31 -0.6 100 100 Calm 30.03 1017 2 2 0.01 0.25
5:53 am 05:53 Cloudy with Light Snow 31 -0.6 31 -0.6 100 100 Calm 29.97 1015 1 2 0.01 0.25
6:53 am 06:53 Cloudy with Light Snow 31 -0.6 31 -0.6 100 100 Calm 29.98 1015 1 2 0.04 1.02
7:23 am 07:23 Cloudy with Light Snow 31 -0.6 31 -0.6 100 100 Calm 30.03 1017 2 3 0.01 0.25
7:31 am 07:31 Cloudy with Light Snow 30 -1.1 30 -1.1 100 100 Calm 30.03 1017 2 3 0.01 0.25
7:53 am 07:53 Cloudy with Light Snow 31 -0.6 31 -0.6 100 100 Calm 29.98 1015 2 3 0.01 0.25
8:03 am 08:03 Cloudy with Light Snow 31 -0.6 31 -0.6 100 100 Calm 30.03 1017 2 3 0.00 0.03
8:11 am 08:11 Cloudy with Light Snow 31 -0.6 31 -0.6 100 100 Calm 30.03 1017 2 3 0.00 0.03
8:41 am 08:41 Cloudy with Mist and Fog 31 -0.6 31 -0.6 100 100 Calm 30.03 1017 4 6 0.01 0.25
8:53 am 08:53 Cloudy with Mist and Fog 31 -0.6 31 -0.6 100 100 VRB 3 6 29.98 1015 5 8 0.01 0.25
9:01 am 09:01 Cloudy with Mist and Fog 31 -0.6 31 -0.6 100 100 Calm 30.03 1017 6 10 0.00 0.00
9:16 am 09:16 Mostly Cloudy with Mist and Fog 31 -0.6 31 -0.6 100 100 Calm 30.06 1018 6 10 0.00 0.00
9:23 am 09:23 Partly Cloudy 31 -0.6 31 -0.6 100 100 VRB 3 6 30.06 1018 7 11 0.00 0.00
9:53 am 09:53 Sunny 31 -0.6 30 -1.1 96 96 Calm 29.98 1015 10 16 0.00 0.00
10:53 am 10:53 Sunny 32 0 30 -1.1 92 92 Calm 29.99 1016 10 16 0.00 0.00
11:53 am 11:53 Sunny 33 0.6 29 -1.7 85 85 Calm 30.00 1016 10 16 0.00 0.00
12:53 pm 12:53 Sunny 34 1.1 29 -1.7 82 82 undefined N/A 29.98 1015 10 16 0.00 0.00
1:53 pm 13:53 Sunny 34 1.1 29 -1.7 82 82 VRB 5 7 29.97 1015 10 16 0.00 0.00
2:53 pm 14:53 Mostly Sunny 36 2.2 29 -1.7 76 76 VRB 3 6 29.97 1015 10 16 0.00 0.00
3:53 pm 15:53 Mostly Sunny 35 1.7 28 -2.2 76 76 VRB 5 7 29.96 1015 10 16 0.00 0.00
4:53 pm 16:53 Sunny 34 1.1 29 -1.7 82 82 VRB 3 6 29.99 1016 10 16 0.00 0.00
5:53 pm 17:53 Clear 30 -1.1 29 -1.7 96 96 Calm 30.02 1017 10 16 0.00 0.00
6:53 pm 18:53 Clear 29 -1.7 29 -1.7 100 100 Calm 30.05 1018 10 16 0.00 0.00
7:53 pm 19:53 Mostly Clear 28 -2.2 28 -2.2 100 100 Calm 30.08 1019 10 16 0.00 0.00
8:53 pm 20:53 Clear 28 -2.2 28 -2.2 100 100 Calm 30.10 1019 10 16 0.00 0.00
9:53 pm 21:53 Clear 27 -2.8 27 -2.8 100 100 Calm 30.14 1021 10 16 0.00 0.00
10:53 pm 22:53 Clear 29 -1.7 25 -3.9 85 85 VRB 3 6 30.16 1022 10 16 0.00 0.03
11:53 pm 23:53 Mostly Cloudy 30 -1.1 24 -4.4 79 79 NNW 7 11 30.19 1022 10 16 0.00 0.00

Powered by AerisWeather